Regional Weather Roundup
Issued by NWS

Home | Current Version | Previous Version | Graphics & Text | Print | Product List | Glossary On
Versions: 1 2 3 4 5 6 7 8 9 10 11 12 13 14 15 16 17 18 19 20 21 22 23 24 25 26 27 28 29 30 31 32 33 34 35 36 37 38 39 40 41 42 43 44 45 46 47 48 49 50
000
ASUS43 KFSD 241810
RWRSD

WEATHER ROUNDUP FOR SOUTH DAKOTA
NATIONAL WEATHER SERVICE SIOUX FALLS SD
100 PM CDT THU MAY 24 2018

NOTE: "FAIR" INDICATES FEW OR NO CLOUDS BELOW 12,000 FEET WITH NO
SIGNIFICANT WEATHER AND/OR OBSTRUCTIONS TO VISIBILITY.


SDZ001>005-009-010-012>017-241900-
NORTHWEST AND NORTH CENTRAL SOUTH DAKOTA

CITY           SKY/WX    TMP DP  RH WIND       PRES   REMARKS
BUFFALO          N/A     74  52  46 W21       29.83S
FAITH            N/A     77  54  44 W14       29.88R
MOBRIDGE       SUNNY     81  60  48 SW15G21   29.81S
$$

SDZ012>016-024>037-041>051-057-063-072>074-241900-
SOUTHWEST AND SOUTH CENTRAL SOUTH DAKOTA

CITY           SKY/WX    TMP DP  RH WIND       PRES   REMARKS
RAPID CTY ARPT SUNNY     76  53  44 NE8       29.93R
PIERRE         SUNNY     80  62  54 SW10G23   29.85F
CUSTER         MOSUNNY   68  45  43 W9        30.05S
ELLSWORTH AFB  SUNNY     76  52  41 NE9       29.93R
PHILIP         SUNNY     78  62  57 SW12      29.88S
PINE RIDGE     SUNNY     78  53  41 W13       29.98R
SPEARFISH      FAIR      75  50  41 W10G17    29.96F
WINNER         FAIR      81  63  54 SW14      29.91F
$$

SDZ004>011-016>023-039-040-241900-
NORTHEAST SOUTH DAKOTA

CITY           SKY/WX    TMP DP  RH WIND       PRES   REMARKS
ABERDEEN       MOSUNNY   85  59  41 SW16G28   29.85F
WATERTOWN      CLOUDY    82  60  47 SW17      29.90F
BROOKINGS      CLOUDY    82  64  54 S16       29.92F
SISSETON         N/A     84  59  42 SW15G22   29.86F
$$

SDZ017-020-022-023-036>040-048>070-241900-
SOUTHEAST SOUTH DAKOTA

CITY           SKY/WX    TMP DP  RH WIND       PRES   REMARKS
SIOUX FALLS    MOSUNNY   82  70  66 S21G28    29.92F
HURON          MOSUNNY   83  62  49 S10G22    29.88F
CHAMBERLAIN    MOSUNNY   83  66  57 SW13G21   29.91S
MITCHELL       PTSUNNY   83  66  56 S13G22    29.91F
YANKTON        SUNNY     85  65  51 S18G28    29.91F
$$

ABBREVIATIONS USED IN REMARKS
   TC - TEMPERATURE IN CELSIUS
  WCI - WIND CHILL INDEX
   HX - HEAT INDEX
  VSB - VISIBILITY





USA.gov is the U.S. government's official web portal to all federal, state and local government web resources and services.